Location: ???? ?????????
(31.1304°N, 31.7111°E)
Time: 10:23:40
(UTC+00:00)

Tiros 1 - Visible Passes

Search period start: 01 March 2021 00:00
Search period end: 11 March 2021 00:00
Orbit: 630 x 664 km, 48.4° (Epoch: 01 March)

Date Brightness Start Highest point End Pass type
(mag) Time Alt. Az. Time Alt. Az. Time Alt. Az.
01 Mar 10.0 01:21:16 13° NE 01:21:16 13° NE 01:21:51 10° NE visible
01 Mar 8.8 02:58:56 19° NW 02:59:44 20° NNW 03:03:16 10° NNE visible
02 Mar 9.5 01:46:12 18° NNE 01:46:12 18° NNE 01:47:38 10° NE visible
02 Mar 9.4 03:24:15 10° NW 03:26:23 13° NNW 03:28:32 10° N visible
03 Mar 9.2 02:11:04 18° N 02:11:04 18° N 02:13:08 10° NNE visible
04 Mar 9.4 02:35:53 13° NNW 02:36:05 13° NNW 02:38:25 10° NNE visible
06 Mar 9.9 01:47:45 11° N 01:47:45 11° N 01:48:17 10° NNE visible
07 Mar 9.7 02:12:29 10° N 02:12:37 10° N 02:13:05 10° N visible
09 Mar 9.7 03:04:41 10° N 03:06:25 12° NNE 03:08:07 10° NE visible
10 Mar 9.5 03:29:52 10° NNW 03:33:06 17° NNE 03:36:19 10° ENE visible
